Location: Heiligenberg
(48.5381°N, 7.3897°E)
Time: 00:18:47
(UTC+00:00)

Cosmos 304 Rocket - Pass Details

Date: 26 May 2022
Orbit: 679 x 686 km, 74.0° (Epoch: 02 July)

Event Time Altitude Azimuth Distance (km) Brightness Sun altitude
Exits shadow 01:17:26 26° 229° (SW) 1,349 4.7 -16.2°
Maximum altitude 01:19:59 55° 297° (WNW) 828 4.1 -16.0°
Drops below altitude 10° 01:24:44 10° 16° (NNE) 2,146 7.6 -15.6°
Sets 01:27:06 0° 21° (NNE) 3,066 8.9 -15.4°
